Weather History for Andrews, NC

Change the Weather History Date:

Thursday, October 2, 2014

  Actual Average (KTYS) Record (KTYS)
Temperature  
Mean Temperature 65 °F 65 °F  
Max Temperature 81 °F 76 °F 93 °F (1884)
Min Temperature 49 °F 54 °F 36 °F (1946)
Degree Days  
Heating Degree Days 0 3  
Month to date heating degree days 6  
Since 1 July heating degree days 29  
Cooling Degree Days 0 3  
Month to date cooling degree days 6  
Year to date cooling degree days 1493  
Growing Degree Days 15 (Base 50)    
Moisture  
Dew Point 57 °F    
Average Humidity 81    
Maximum Humidity 100    
Minimum Humidity 45    
Precipitation  
Precipitation 0.00 in 0.08 in 0.64 in (1925)
Month to date precipitation 0.17  
Year to date precipitation 37.01  
Snow  
Snow 0.00 in 0.00 in - ()
Month to date snowfall 0.0  
Since 1 July snowfall 0.0  
Since 1 September snowfall 0.0  
Snow Depth -    
Sea Level Pressure  
Sea Level Pressure 30.10 in    
Wind  
Wind Speed 1 mph (SW)    
Max Wind Speed 8 mph    
Max Gust Speed -    
Visibility 8 miles    
Events Fog    
T = Trace of Precipitation, MM = Missing Value Source: NWS Daily Summary

Daily Weather History Graph

Daily Weather History Graph

Search for Another Location

Airport:

Trip Planner

Search our weather history database for the weather conditions in past years. The results will help you decide how hot, cold, wet, or windy it might be!

Date:

Astronomy

Oct. 02, 2014 Rise Set
Actual Time 7:31 AM EDT 7:17 PM EDT
Civil Twilight 7:05 AM EDT 7:43 PM EDT
Nautical Twilight 6:36 AM EDT 8:12 PM EDT
Astronomical Twilight 6:06 AM EDT 8:42 PM EDT
Moon 3:11 PM EDT (10/2) 12:59 AM EDT (10/2)
Length of Visible Light 12h 37m
Length of Day
11h 46m
First Quarter, 60% of the Moon is Illuminated
Oct 2
First Quarter
Oct 8
Full
Oct 15
Last Quarter
Oct 23
New
Oct 30
First Quarter

Hourly Weather History & Observations

Time (EDT) Temp. Heat Index Dew Point Humidity Pressure Visibility Wind Dir Wind Speed Gust Speed Precip Events Conditions
12:15 AM 52.3 °F - 52.2 °F 99% 30.09 in 5.0 mi Calm Calm - N/A   Clear
12:35 AM 53.6 °F - 53.6 °F 100% 30.00 in 3.0 mi Calm Calm - N/A   Scattered Clouds
12:55 AM 53.6 °F - 53.6 °F 100% 29.99 in 3.0 mi Calm Calm - N/A   Scattered Clouds
1:15 AM 52.2 °F - 52.0 °F 99% 30.10 in 4.0 mi Calm Calm - N/A   Clear
1:35 AM 51.4 °F - 51.3 °F 99% 30.10 in 4.0 mi Calm Calm - N/A   Clear
1:55 AM 51.4 °F - 51.3 °F 99% 30.10 in 5.0 mi Calm Calm - N/A   Clear
2:15 AM 51.4 °F - 51.4 °F 100% 30.10 in 4.0 mi Calm Calm - N/A   Clear
2:35 AM 51.4 °F - 51.4 °F 100% 30.10 in 4.0 mi Calm Calm - N/A   Clear
2:55 AM 51.3 °F - 51.3 °F 100% 30.10 in 7.0 mi Calm Calm - N/A   Clear
3:15 AM 52.3 °F - 52.3 °F 100% 29.99 in 0.2 mi Calm Calm - N/A Fog Fog
3:35 AM 50.5 °F - 50.4 °F 99% 30.10 in 4.0 mi Calm Calm - N/A   Clear
3:55 AM 50.5 °F - 50.5 °F 100% 30.10 in 4.0 mi Calm Calm - N/A   Clear
4:15 AM 50.0 °F - 50.0 °F 100% 30.11 in 1.8 mi Calm Calm - N/A   Mist
4:35 AM 50.0 °F - 50.0 °F 100% 30.11 in 4.0 mi Calm Calm - N/A   Clear
4:55 AM 50.0 °F - 50.0 °F 100% 30.11 in 4.0 mi Calm Calm - N/A   Clear
5:15 AM 50.0 °F - 50.0 °F 100% 30.11 in 5.0 mi Calm Calm - N/A   Clear
5:35 AM 51.8 °F - 51.8 °F 100% 30.01 in 0.2 mi Calm Calm - N/A Fog Fog
5:55 AM 49.8 °F - 49.8 °F 100% 30.12 in 4.0 mi Calm Calm - N/A   Clear
6:15 AM 49.5 °F - 49.5 °F 100% 30.13 in 4.0 mi Calm Calm - N/A   Clear
6:35 AM 49.8 °F - 49.8 °F 100% 30.13 in 5.0 mi Calm Calm - N/A   Clear
6:55 AM 49.6 °F - 49.6 °F 100% 30.14 in 4.0 mi Calm Calm - N/A   Clear
7:15 AM 49.5 °F - 49.5 °F 100% 30.15 in 5.0 mi Calm Calm - N/A   Clear
7:35 AM 49.1 °F - 49.1 °F 100% 30.15 in 3.0 mi Calm Calm - N/A   Clear
7:55 AM 49.6 °F - 49.6 °F 100% 30.16 in 3.0 mi Calm Calm - N/A   Clear
8:15 AM 50.5 °F - 50.5 °F 100% 30.06 in 0.2 mi Calm Calm - N/A Fog Fog
8:35 AM 52.9 °F - 52.5 °F 99% 30.16 in 7.0 mi Calm Calm - N/A   Clear
8:55 AM 54.7 °F - 53.8 °F 97% 30.17 in 7.0 mi Calm Calm - N/A   Clear
9:15 AM 56.1 °F - 55.2 °F 97% 30.17 in 10.0 mi Calm Calm - N/A   Clear
9:35 AM 58.6 °F - 56.3 °F 92% 30.17 in 10.0 mi Calm Calm - N/A   Clear
9:55 AM 61.9 °F - 58.5 °F 89% 30.17 in 10.0 mi Calm Calm - N/A   Clear
10:15 AM 64.4 °F - 59.5 °F 84% 30.17 in 10.0 mi Calm Calm - N/A   Clear
10:35 AM 67.1 °F - 60.4 °F 79% 30.17 in 10.0 mi Calm Calm - N/A   Clear
10:55 AM 69.3 °F - 61.0 °F 75% 30.16 in 10.0 mi Calm Calm - N/A   Clear
11:15 AM 72.1 °F - 61.0 °F 68% 30.16 in 10.0 mi Calm Calm - N/A   Clear
11:35 AM 74.5 °F - 60.6 °F 62% 30.16 in 10.0 mi Calm Calm - N/A   Clear
11:55 AM 75.7 °F - 61.5 °F 61% 30.15 in 10.0 mi West 3.5 mph - N/A   Clear
12:15 PM 76.5 °F - 62.4 °F 62% 30.15 in 10.0 mi SW 3.5 mph - N/A   Clear
12:35 PM 77.4 °F - 62.4 °F 60% 30.14 in 10.0 mi WSW 5.8 mph - N/A   Clear
12:55 PM 77.5 °F - 61.7 °F 58% 30.13 in 10.0 mi WSW 5.8 mph - N/A   Clear
1:15 PM 78.4 °F - 61.0 °F 55% 30.13 in 10.0 mi WSW 8.1 mph - N/A   Clear
1:35 PM 78.6 °F - 60.8 °F 54% 30.12 in 7.0 mi WSW 4.6 mph - N/A   Clear
1:55 PM 78.3 °F - 61.2 °F 56% 30.11 in 10.0 mi WSW 5.8 mph - N/A   Scattered Clouds
2:15 PM 79.2 °F - 60.1 °F 52% 30.10 in 10.0 mi SW 4.6 mph - N/A   Scattered Clouds
2:35 PM 78.8 °F - 59.9 °F 52% 30.09 in 10.0 mi WSW 5.8 mph - N/A   Scattered Clouds
2:55 PM 78.4 °F - 58.8 °F 51% 30.09 in 10.0 mi SSE 4.6 mph - N/A   Scattered Clouds
3:15 PM 80.8 °F 81.4 °F 60.3 °F 49% 30.08 in 10.0 mi WSW 5.8 mph - N/A   Mostly Cloudy
3:35 PM 79.0 °F - 59.9 °F 52% 30.07 in 10.0 mi Calm Calm - N/A   Scattered Clouds
3:55 PM 81.1 °F 81.6 °F 59.7 °F 48% 30.07 in 10.0 mi WSW 5.8 mph - N/A   Scattered Clouds
4:15 PM 81.5 °F 81.8 °F 59.2 °F 47% 30.06 in 10.0 mi WSW 6.9 mph - N/A   Mostly Cloudy
4:35 PM 81.0 °F 81.1 °F 57.9 °F 45% 30.06 in 10.0 mi WSW 6.9 mph - N/A   Scattered Clouds
4:55 PM 81.5 °F 81.7 °F 58.8 °F 46% 30.05 in 10.0 mi SW 4.6 mph - N/A   Clear
5:15 PM 80.6 °F 81.0 °F 58.5 °F 47% 30.05 in 10.0 mi WSW 6.9 mph - N/A   Clear
5:35 PM 80.2 °F 80.7 °F 58.1 °F 47% 30.04 in 10.0 mi SSW 3.5 mph - N/A   Clear
5:55 PM 79.3 °F - 58.5 °F 49% 30.04 in 10.0 mi South 5.8 mph - N/A   Clear
6:15 PM 78.1 °F - 58.8 °F 51% 30.04 in 10.0 mi SSE 4.6 mph - N/A   Clear
6:35 PM 76.6 °F - 59.9 °F 56% 30.04 in 10.0 mi SSW 3.5 mph - N/A   Clear
6:55 PM 74.8 °F - 60.1 °F 60% 30.05 in 10.0 mi South 3.5 mph - N/A   Clear
7:15 PM 73.6 °F - 60.1 °F 63% 30.06 in 10.0 mi SW 8.1 mph - N/A   Clear
7:35 PM 72.7 °F - 60.3 °F 65% 30.06 in 10.0 mi SW 3.5 mph - N/A   Clear
7:55 PM 68.5 °F - 61.2 °F 77% 30.07 in 10.0 mi Calm Calm - N/A   Scattered Clouds
8:15 PM 66.2 °F - 61.7 °F 85% 30.07 in 10.0 mi Calm Calm - N/A   Scattered Clouds
8:35 PM 65.3 °F - 61.3 °F 87% 30.07 in 10.0 mi Calm Calm - N/A   Scattered Clouds
8:55 PM 63.9 °F - 60.8 °F 90% 30.08 in 10.0 mi Calm Calm - N/A   Clear
9:15 PM 63.5 °F - 60.8 °F 91% 30.08 in 10.0 mi NW 3.5 mph - N/A   Clear
9:35 PM 63.0 °F - 60.8 °F 93% 30.08 in 10.0 mi Calm Calm - N/A   Clear
9:55 PM 61.7 °F - 60.1 °F 94% 30.08 in 10.0 mi Calm Calm - N/A   Clear
10:15 PM 61.9 °F - 60.6 °F 96% 30.08 in 10.0 mi Calm Calm - N/A   Clear
10:35 PM 60.6 °F - 59.5 °F 96% 30.08 in 10.0 mi Calm Calm - N/A   Clear
10:55 PM 60.3 °F - 59.4 °F 97% 30.08 in 10.0 mi Calm Calm - N/A   Clear
11:15 PM 59.9 °F - 59.4 °F 98% 30.08 in 10.0 mi Calm Calm - N/A   Clear
11:35 PM 60.1 °F - 59.4 °F 97% 30.07 in 10.0 mi Calm Calm - N/A   Clear
11:55 PM 59.5 °F - 59.2 °F 99% 30.07 in 10.0 mi Calm Calm - N/A   Scattered Clouds